CAPE
0 0 0 0 0 0 0 0 0 0 0 0 0 0 0 0 0 8 58 590 162 899 1622 1292 1196 1500 1478 1622 1682 1867 2185 2199 2192 2024 2056 1920 2161 2117 2293 2302 2276 2251 2359 2051 1777 1746 1612 1518 1576
0 0 0 0 0 0 0 0 0 0 0 0 0 0 0 0 0 42 302 443 378 735 1511 1540 1074 1408 1524 1632 1757 2000 2248 2424 2243 2123 2032 2111 2287 1896 2290 2231 2170 2265 2335 2250 1830 1847 1713 1612 1452
0 0 0 0 0 0 0 0 0 0 0 0 0 0 0 0 0 4 327 623 443 769 1178 1731 1103 1250 1580 1682 1836 1851 2269 2349 2239 2243 2156 2313 2223 1808 1878 1599 1664 2098 2427 2139 1815 1705 1570 1489 1210
0 0 0 0 0 0 0 0 0 0 0 0 0 0 0 0 6 2 739 682 578 960 1035 1331 878 1159 1475 1723 1744 1643 1973 2060 2045 2062 2141 1926 1896 1970 1723 1279 977 1516 1454 1821 1546 1520 1581 1221 1051
0 0 0 0 0 0 0 0 0 0 0 0 0 0 0 2 51 152 869 692 692 1002 1394 1600 886 1019 1402 1716 1834 1614 1645 1844 1993 1944 1663 1814 2006 1713 1623 1369 960 798 296 461 569 1139 1036 828 689
0 0 0 0 0 0 0 0 0 0 0 0 0 0 0 0 69 581 1103 1103 1073 1452 1759 1717 985 997 1186 1492 1686 1490 1368 1563 1568 1623 1574 1667 1744 1555 1475 1403 1103 891 614 516 524 345 628 484 458
0 0 0 0 0 0 0 0 0 0 0 0 0 0 0 0 100 793 1327 1540 1723 2008 1964 2080 1607 1259 889 1164 1270 1404 1267 1334 1334 1488 1424 1524 1388 1159 1260 1078 921 820 688 536 264 195 297 258 305
0 0 0 0 0 0 0 0 0 0 0 0 0 0 0 65 478 1234 1541 1824 2066 2534 2353 2151 2073 1691 1705 1592 1078 1094 1172 1165 1107 1276 1218 1246 1094 951 877 787 852 583 489 368 197 239 383 268 169
0 0 0 0 0 0 0 0 0 0 0 0 0 0 0 0 853 1460 1648 2048 2050 2315 2398 2162 2069 1854 1867 2016 1633 1065 944 847 894 1060 1075 1112 1510 1113 667 533 678 650 353 352 346 324 203 132 104
0 0 0 0 0 0 0 0 0 0 0 0 0 0 0 0 401 1381 1592 1744 1805 2088 2169 1992 2025 1995 1953 1861 2156 1891 1655 1486 1363 1342 1348 1696 1315 1362 884 479 442 626 483 409 315 143 116 109 203
0 0 0 0 0 0 0 0 0 0 0 0 0 0 0 0 5 541 938 1126 1441 1712 1859 1944 1862 2087 1863 1697 2112 2002 1989 1561 1651 1533 1511 1304 1106 1668 1460 968 311 294 145 453 170 165 101 121 183
0 0 0 0 0 0 0 0 0 0 0 0 0 0 0 0 0 0 99 362 712 1318 1726 1936 1852 1932 2012 1729 1616 1656 1726 1683 1623 1584 1503 1627 1431 1402 1203 867 1046 1137 1252 365 390 302 108 70 161
0 0 0 0 0 0 0 0 0 0 0 0 0 0 0 0 0 0 0 0 21 750 1655 2156 1774 1732 1990 1673 1415 1527 1372 1295 1218 1075 1352 1393 1165 1231 1205 1129 1242 1040 831 866 703 175 161 89 154
0 0 0 0 0 0 0 0 0 0 0 0 0 0 0 0 0 0 0 0 0 152 1299 2164 1792 1513 1906 1764 1661 1456 1419 1284 1445 881 785 1114 1193 1240 1116 963 854 992 749 732 211 137 86 90 118
0 0 0 0 0 0 0 0 0 0 0 0 0 0 0 0 0 0 0 0 0 0 563 2251 1973 1631 1792 1687 1477 1170 1052 965 993 1101 1033 661 865 997 786 1110 1154 820 884 431 331 114 100 87 194
0 0 0 0 0 0 0 0 0 0 0 0 0 0 0 0 0 0 0 0 0 0 204 1714 1953 1623 1408 1630 1419 1143 980 972 904 969 1241 871 843 651 315 572 728 898 622 600 219 216 93 79 200
0 0 0 0 0 0 0 0 0 0 0 0 0 0 0 0 0 0 0 0 0 0 26 1097 2141 1862 1718 1241 1381 1163 1152 927 776 736 741 870 813 664 714 651 744 762 322 295 158 217 106 78 144
0 0 0 0 0 6 0 0 0 0 0 0 0 0 0 0 0 0 0 0 0 0 0 632 1776 2017 1532 1376 1054 778 1246 572 661 794 325 282 660 526 553 549 209 188 142 151 57 106 72 128 114
0 3 0 0 0 3 0 0 0 0 0 0 0 0 0 0 0 0 0 0 0 0 0 474 1626 2149 1437 1563 1014 765 758 626 565 449 529 419 461 432 267 55 14 95 30 22 19 111 52 70 182
0 0 0 0 0 9 0 0 0 0 0 0 0 0 0 0 0 0 0 0 0 0 0 33 917 1654 1531 1424 810 814 652 557 769 498 331 235 405 332 112 29 15 49 46 29 25 27 94 154 132
0 0 0 0 0 1 0 0 0 0 0 0 0 0 0 0 0 0 0 0 0 0 0 0 256 1213 1459 1018 1040 984 823 451 482 422 382 389 278 200 34 4 36 20 18 21 30 12 50 103 142
0 0 0 0 0 2 0 0 0 0 0 0 0 0 0 0 0 0 0 0 0 0 0 0 107 842 1268 1207 1234 1182 715 502 274 363 71 79 18 1 1 3 17 47 18 36 30 11 48 101 106
0 0 0 0 0 0 0 0 0 5 0 0 0 0 6 16 15 11 1 0 0 0 0 96 257 841 1010 1281 1382 1223 980 620 283 36 50 2 0 0 0 0 1 13 7 4 6 44 114 171 132
0 0 3 0 0 0 0 0 0 0 0 0 16 22 23 27 20 11 7 1 0 0 0 241 575 1269 820 924 1376 1192 1047 682 144 4 77 67 0 1 0 0 3 10 31 13 9 140 168 146 122
0 0 0 0 0 0 0 0 0 33 52 18 14 22 26 30 8 1 1 2 0 33 0 156 776 993 572 621 1143 1265 1097 617 122 80 34 14 0 2 14 9 0 4 7 18 22 50 76 153 168
0 0 1 0 2 1 0 0 0 78 34 37 17 33 30 36 13 0 0 2 1 66 3 251 961 551 266 739 1116 1160 1007 485 78 29 34 22 5 1 0 6 1 25 23 23 11 38 40 59 55
0 0 1 2 3 0 0 72 90 69 99 50 24 26 7 11 6 0 0 0 0 4 110 504 770 408 74 808 1025 1027 818 350 35 33 70 22 23 0 2 9 2 2 22 45 54 51 33 30 29
0 0 0 28 0 0 7 9 33 51 39 20 29 32 9 13 0 0 0 0 0 0 72 857 725 467 409 596 717 548 639 80 69 161 74 41 70 7 3 0 1 16 5 22 25 29 0 0 4
71 96 63 43 0 0 0 106 102 7 6 23 26 15 5 0 0 0 0 2 2 28 278 863 577 479 722 605 726 597 421 102 52 100 93 31 26 19 0 2 1 8 15 10 2 6 14 1 0
52 72 47 0 0 0 36 69 22 0 19 32 19 8 0 0 0 0 0 3 9 230 415 438 495 719 754 605 564 445 144 27 40 60 63 15 30 44 26 5 1 0 8 11 7 2 4 20 13
CIN
-0 -0 -0 -0 -0 -0 -0 -0 -0 -0 -0 -0 -0 -0 -0 -0 -0 -4 -72 -47 -67 -58 -132 -254 -253 -181 -154 -118 -84 -32 -0 -0 -5 -19 -19 -13 -1 -3 -0 -0 -0 -0 -0 -0 -0 -0 -0 -0 -0
-0 -0 -0 -0 -0 -0 -0 -0 -0 -0 -0 -0 -0 -0 -0 -0 -0 -107 -43 -59 -55 -60 -84 -137 -259 -183 -145 -108 -56 -10 -0 -0 -4 -15 -23 -12 -2 -15 -1 -1 -2 -1 -0 -0 -0 -0 -0 -0 -0
-0 -0 -0 -0 -0 -0 -0 -0 -0 -0 -0 -0 -0 -0 -0 -0 -0 -64 -38 -61 -65 -47 -51 -126 -250 -208 -140 -89 -35 -16 -1 -1 -5 -7 -9 -3 -7 -18 -14 -17 -12 -3 -0 -0 -0 -0 -0 -0 -3
-0 -0 -0 -0 -0 -0 -0 -0 -0 -0 -0 -0 -0 -0 -0 -0 -160 -62 -38 -58 -60 -50 -42 -191 -295 -221 -143 -73 -34 -28 -9 -11 -21 -16 -6 -19 -14 -8 -10 -12 -13 -7 -6 -0 -6 -1 -0 -0 -4
-0 -0 -0 -0 -0 -0 -0 -0 -0 -0 -0 -0 -0 -0 -0 -73 -134 -63 -31 -54 -59 -63 -67 -173 -286 -230 -131 -61 -14 -22 -17 -24 -19 -19 -29 -22 -11 -16 -14 -22 -24 -19 -7 -14 -11 -14 -14 -19 -33
-0 -0 -0 -0 -0 -0 -0 -0 -0 -0 -0 -0 -0 -0 -0 -0 -107 -41 -31 -44 -66 -69 -90 -150 -249 -216 -153 -83 -27 -28 -29 -25 -29 -26 -20 -22 -22 -25 -26 -23 -34 -22 -21 -2 -11 -2 -14 -40 -41
-0 -0 -0 -0 -0 -0 -0 -0 -0 -0 -0 -0 -0 -0 -0 -0 -80 -41 -37 -42 -85 -104 -106 -98 -134 -157 -178 -116 -77 -36 -27 -32 -25 -27 -47 -39 -37 -53 -39 -43 -44 -37 -36 -44 -48 -60 -10 -44 -19
-0 -0 -0 -0 -0 -0 -0 -0 -0 -0 -0 -0 -0 -0 -0 -91 -40 -51 -37 -51 -75 -72 -89 -80 -68 -88 -71 -69 -101 -69 -35 -20 -36 -27 -29 -37 -32 -60 -51 -56 -47 -63 -72 -60 -75 -51 -1 -6 -43
-0 -0 -0 -0 -0 -0 -0 -0 -0 -0 -0 -0 -0 -0 -0 -0 -60 -46 -34 -36 -62 -61 -60 -77 -63 -65 -40 -31 -43 -64 -57 -32 -30 -34 -20 -21 -1 -9 -43 -18 -37 -16 -42 -39 -35 -17 -7 -12 -23
-0 -0 -0 -0 -0 -0 -0 -0 -0 -0 -0 -0 -0 -0 -0 -0 -93 -45 -31 -32 -56 -57 -62 -108 -81 -50 -22 -38 -7 -1 -1 -0 -0 -0 -7 -1 -0 -0 -0 -10 -42 -9 -21 -24 -14 -24 -24 -6 -5
-0 -0 -0 -0 -0 -0 -0 -0 -0 -0 -0 -0 -0 -0 -0 -0 -64 -64 -30 -23 -35 -54 -81 -88 -101 -44 -29 -18 -3 -0 -0 -0 -0 -0 -0 -0 -0 -0 -0 -3 -17 -1 -9 -0 -5 -7 -6 -0 -4
-0 -0 -0 -0 -0 -0 -0 -0 -0 -0 -0 -0 -0 -0 -0 -0 -0 -0 -84 -14 -22 -40 -59 -86 -102 -63 -29 -18 -29 -9 -0 -0 -0 -0 -0 -0 -0 -0 -1 -0 -0 -0 -0 -1 -4 -1 -5 -2 -7
-0 -0 -0 -0 -0 -0 -0 -0 -0 -0 -0 -0 -0 -0 -0 -0 -0 -0 -0 -0 -42 -15 -48 -71 -108 -100 -52 -46 -48 -25 -18 -10 -10 -7 -0 -0 -0 -0 -0 -0 -0 -0 -0 -0 -0 -0 -0 -1 -6
-0 -0 -0 -0 -0 -0 -0 -0 -0 -0 -0 -0 -0 -0 -0 -0 -0 -0 -0 -0 -0 -24 -22 -68 -125 -133 -63 -37 -23 -50 -19 -3 -2 -18 -9 -0 -0 -0 -0 -0 -0 -0 -0 -0 -7 -11 -10 -1 -14
-0 -0 -0 -0 -0 -0 -0 -0 -0 -0 -0 -0 -0 -0 -0 -0 -0 -0 -0 -0 -0 -0 -11 -75 -119 -123 -82 -48 -33 -66 -56 -22 -8 -2 -1 -4 -0 -0 -0 -0 -0 -0 -0 -1 -9 -16 -38 -14 -4
-0 -0 -0 -0 -0 -0 -0 -0 -0 -0 -0 -0 -0 -0 -0 -0 -0 -0 -0 -0 -0 -0 -11 -28 -88 -151 -143 -81 -60 -56 -70 -45 -18 -4 -0 -0 -0 -0 -8 -1 -0 -0 -0 -0 -10 -1 -27 -11 -2
-0 -0 -0 -0 -0 -0 -0 -0 -0 -0 -0 -0 -0 -0 -0 -0 -0 -0 -0 -0 -0 -0 -37 -21 -52 -121 -105 -134 -74 -76 -49 -66 -53 -19 -12 -0 -0 -0 -0 -0 -0 -0 -10 -1 -7 -0 -19 -4 -13
-0 -0 -0 -0 -0 -0 -0 -0 -0 -0 -0 -0 -0 -0 -0 -0 -0 -0 -0 -0 -0 -0 -0 -10 -34 -66 -126 -103 -113 -127 -51 -117 -74 -22 -57 -18 -0 -0 -0 -0 -1 -0 -0 -2 -14 -3 -21 -4 -15
-0 -15 -0 -0 -0 -2 -0 -0 -0 -0 -0 -0 -0 -0 -0 -0 -0 -0 -0 -0 -0 -0 -0 -30 -16 -40 -136 -98 -155 -152 -129 -109 -91 -72 -15 -2 -0 -0 -0 -13 -0 -7 -4 -5 -52 -2 -21 -17 -19
-0 -0 -0 -0 -0 -1 -0 -0 -0 -0 -0 -0 -0 -0 -0 -0 -0 -0 -0 -0 -0 -0 -0 -110 -41 -38 -128 -126 -201 -136 -125 -110 -57 -52 -21 -11 -5 -0 -12 -1 -0 -0 -0 -1 -2 -8 -3 -3 -10
-0 -0 -0 -0 -0 -1 -0 -0 -0 -0 -0 -0 -0 -0 -0 -0 -0 -0 -0 -0 -0 -0 -0 -0 -71 -31 -124 -180 -127 -86 -75 -112 -99 -74 -19 -2 -11 -1 -16 -1 -0 -2 -0 -0 -0 -4 -6 -1 -5
-0 -0 -0 -0 -0 -17 -0 -0 -0 -0 -0 -0 -0 -0 -0 -0 -0 -0 -0 -0 -0 -0 -0 -0 -120 -31 -143 -120 -89 -80 -118 -145 -149 -71 -82 -55 -17 -2 -14 -0 -0 -0 -2 -0 -0 -0 -5 -3 -0
-0 -0 -0 -0 -0 -0 -0 -0 -0 -3 -0 -0 -0 -0 -0 -1 -0 -0 -0 -0 -0 -0 -0 -127 -101 -47 -178 -113 -63 -88 -69 -110 -139 -141 -115 -2 -0 -1 -0 -0 -0 -0 -0 -0 -0 -4 -1 -0 -0
-0 -0 -0 -0 -0 -0 -0 -0 -0 -0 -0 -0 -0 -0 -0 -1 -0 -0 -0 -0 -0 -0 -0 -68 -93 -43 -221 -166 -75 -96 -72 -95 -163 -184 -106 -89 -0 -0 -0 -0 -1 -0 -0 -0 -0 -1 -1 -3 -6
-0 -0 -0 -0 -0 -0 -0 -0 -0 -0 -20 -13 -0 -0 -0 -0 -0 -0 -0 -0 -0 -131 -0 -106 -58 -126 -250 -216 -104 -80 -67 -106 -176 -159 -145 -0 -0 -0 -0 -0 -0 -0 -0 -0 -10 -13 -15 -3 -0
-0 -0 -0 -0 -0 -0 -0 -0 -0 -0 -26 -4 -6 -0 -0 -0 -0 -0 -0 -0 -0 -138 -46 -60 -31 -192 -295 -189 -95 -80 -68 -146 -193 -211 -147 -0 -1 -0 -0 -0 -0 -2 -5 -2 -0 -1 -2 -4 -5
-0 -0 -0 -3 -6 -0 -0 -0 -0 -8 -0 -2 -0 -1 -4 -0 -0 -0 -0 -0 -0 -98 -118 -22 -73 -190 -342 -163 -93 -87 -94 -192 -235 -221 -166 -0 -0 -0 -0 -0 -0 -0 -1 -2 -2 -0 -1 -2 -6
-0 -1 -0 -0 -0 -0 -0 -0 -0 -3 -1 -2 -0 -0 -4 -0 -0 -0 -0 -0 -0 -0 -123 -2 -92 -149 -201 -172 -141 -149 -112 -270 -225 -157 -181 -152 -97 -0 -0 -0 -0 -0 -4 -0 -0 -0 -0 -0 -0
-0 -0 -1 -0 -0 -0 -0 -1 -1 -10 -0 -0 -0 -0 -0 -0 -0 -0 -0 -7 -23 -168 -28 -7 -83 -104 -134 -144 -141 -120 -135 -224 -239 -175 -159 -147 -2 -0 -0 -1 -0 -2 -0 -1 -0 -0 -0 -0 -1
-0 -0 -0 -0 -0 -0 -9 -0 -7 -0 -0 -4 -0 -0 -0 -0 -0 -0 -0 -88 -0 -33 -7 -20 -49 -55 -102 -112 -112 -115 -108 -106 -247 -213 -164 -22 -6 -0 -0 -0 -0 -0 -4 -1 -2 -0 -2 -0 -4
Wind_Speed
nan nan nan nan nan nan nan nan nan nan nan nan nan nan nan nan nan nan nan 27 33 30 29 26 20 23 21 21 24 27 30 31 30 28 28 26 27 25 25 23 24 23 24 26 27 28 30 30 31
nan nan nan nan nan nan nan nan nan nan nan nan nan nan nan nan nan nan 28 28 31 29 28 28 24 24 23 21 24 25 29 33 30 28 28 28 26 27 27 21 22 25 26 27 27 28 30 30 30
nan nan nan nan nan nan nan nan nan nan nan nan nan nan nan nan nan nan 30 30 31 30 26 30 26 23 24 24 25 25 28 31 27 27 29 32 29 29 26 20 21 25 27 27 29 28 31 32 30
nan nan nan nan nan nan nan nan nan nan nan nan nan nan nan nan nan nan 29 28 29 27 24 32 26 23 25 26 25 25 25 28 26 27 30 32 28 27 23 19 17 22 24 26 25 29 31 32 30
nan nan nan nan nan nan nan nan nan nan nan nan nan nan nan nan nan 29 29 26 29 27 25 27 25 23 25 27 25 24 22 23 23 22 24 26 28 27 23 22 19 32 28 36 30 29 31 32 29
nan nan nan nan nan nan nan nan nan nan nan nan nan nan nan nan nan 27 27 25 30 28 23 26 24 22 23 26 25 25 22 19 16 18 20 25 27 25 24 24 33 37 37 31 26 22 29 25 28
nan nan nan nan nan nan nan nan nan nan nan nan nan nan nan nan 27 24 23 23 30 31 24 24 24 23 19 22 24 24 23 17 18 17 22 24 28 28 28 34 37 36 37 34 38 36 20 20 25
nan nan nan nan nan nan nan nan nan nan nan nan nan nan nan nan 32 25 24 23 28 32 26 22 22 23 22 24 24 24 21 20 18 20 21 23 25 27 27 30 32 34 38 39 39 35 29 18 20
nan nan nan nan nan nan nan nan nan nan nan nan nan nan nan nan 29 25 24 21 26 29 28 23 21 21 21 24 26 26 24 22 25 27 27 26 20 23 24 21 28 35 34 37 31 30 28 25 24
nan nan nan nan nan nan nan nan nan nan nan nan nan nan nan nan 29 24 21 19 22 28 25 28 21 20 21 24 27 23 20 20 23 22 26 24 22 19 23 23 27 28 30 33 29 25 27 27 28
nan nan nan nan nan nan nan nan nan nan nan nan nan nan nan nan nan 20 18 18 21 25 26 32 24 20 20 25 25 21 19 18 20 22 23 25 24 18 19 23 24 29 25 25 27 31 25 16 22
nan nan nan nan nan nan nan nan nan nan nan nan nan nan nan nan nan nan nan 17 21 27 26 32 28 22 19 23 24 25 23 21 21 20 23 22 21 22 19 23 25 24 21 22 24 26 23 nan 19
nan nan nan nan nan nan nan nan nan nan nan nan nan nan nan nan nan nan nan nan nan 26 28 34 31 27 19 21 25 22 26 24 24 23 20 21 23 23 22 23 22 26 24 24 26 30 25 nan 20
nan nan nan nan nan nan nan nan nan nan nan nan nan nan nan nan nan nan nan nan nan 26 31 35 33 30 23 21 25 25 25 25 26 26 22 21 22 24 23 24 25 29 27 27 28 26 nan nan 24
nan nan nan nan nan nan nan nan nan nan nan nan nan nan nan nan nan nan nan nan nan nan 33 34 38 31 27 22 23 26 21 22 26 25 25 23 22 23 23 24 28 25 29 27 27 24 24 nan 25
nan nan nan nan nan nan nan nan nan nan nan nan nan nan nan nan nan nan nan nan nan nan 33 38 37 34 31 26 26 24 27 23 26 26 24 24 22 22 24 24 26 24 26 27 28 27 nan nan 27
nan nan nan nan nan nan nan nan nan nan nan nan nan nan nan nan nan nan nan nan nan nan nan 36 34 34 32 28 27 25 25 24 26 26 25 22 21 21 24 24 22 28 28 24 27 27 28 nan 31
nan nan nan nan nan nan nan nan nan nan nan nan nan nan nan nan nan nan nan nan nan nan nan 36 34 34 36 32 27 29 26 26 25 26 24 21 23 24 26 26 25 34 29 24 nan 30 nan 25 37
nan nan nan nan nan nan nan nan nan nan nan nan nan nan nan nan nan nan nan nan nan nan nan 32 35 33 37 37 30 31 29 27 27 28 25 22 25 25 28 nan nan nan nan nan nan 27 nan nan 42
nan nan nan nan nan nan nan nan nan nan nan nan nan nan nan nan nan nan nan nan nan nan nan nan 33 36 38 39 34 30 28 26 26 28 22 24 22 26 27 nan nan nan nan nan nan nan nan 30 36
nan nan nan nan nan nan nan nan nan nan nan nan nan nan nan nan nan nan nan nan nan nan nan nan 31 36 39 38 33 29 29 24 27 29 23 24 25 28 nan nan nan nan nan nan nan nan nan 30 36
nan nan nan nan nan nan nan nan nan nan nan nan nan nan nan nan nan nan nan nan nan nan nan nan 27 33 37 34 33 31 28 23 24 28 nan nan nan nan nan nan nan nan nan nan nan nan nan 30 33
nan nan nan nan nan nan nan nan nan nan nan nan nan nan nan nan nan nan nan nan nan nan nan nan 25 32 37 32 30 33 26 22 24 nan nan nan nan nan nan nan nan nan nan nan nan nan 26 28 27
nan nan nan nan nan nan nan nan nan nan nan nan nan nan nan nan nan nan nan nan nan nan nan 33 26 35 35 30 31 33 30 23 25 nan nan nan nan nan nan nan nan nan nan nan nan 21 23 28 24
nan nan nan nan nan nan nan nan nan nan nan nan nan nan nan nan nan nan nan nan nan nan nan 28 26 33 34 31 30 33 33 24 25 nan nan nan nan nan nan nan nan nan nan nan nan nan nan 25 21
nan nan nan nan nan nan nan nan nan nan nan nan nan nan nan nan nan nan nan nan nan nan nan 28 30 33 37 33 28 34 37 26 nan nan nan nan nan nan nan nan nan nan nan nan nan nan nan nan nan
nan nan nan nan nan nan nan nan nan nan nan nan nan nan nan nan nan nan nan nan nan nan 27 29 39 37 nan 34 33 34 38 30 nan nan nan nan nan nan nan nan nan nan nan nan nan nan nan nan nan
nan nan nan nan nan nan nan nan nan nan nan nan nan nan nan nan nan nan nan nan nan nan nan 40 42 38 40 38 37 35 38 nan nan 25 nan nan nan nan nan nan nan nan nan nan nan nan nan nan nan
nan nan nan nan nan nan nan 23 33 nan nan nan nan nan nan nan nan nan nan nan nan nan 39 50 44 40 43 42 42 41 39 33 nan 25 nan nan nan nan nan nan nan nan nan nan nan nan nan nan nan
nan nan nan nan nan nan nan nan nan nan nan nan nan nan nan nan nan nan nan nan nan 54 52 47 47 47 43 45 45 47 43 nan nan nan nan nan nan nan nan nan nan nan nan nan nan nan nan nan nan
Wind_Direction
nan nan nan nan nan nan nan nan nan nan nan nan nan nan nan nan nan nan nan 286 295 305 307 322 327 320 318 322 321 326 332 329 322 317 309 302 292 287 283 284 290 293 289 282 278 274 272 268 262
nan nan nan nan nan nan nan nan nan nan nan nan nan nan nan nan nan nan 285 292 298 305 314 322 327 320 319 319 321 327 335 336 330 323 315 303 294 292 286 281 278 280 279 277 273 265 263 260 255
nan nan nan nan nan nan nan nan nan nan nan nan nan nan nan nan nan nan 278 296 301 306 322 310 325 318 313 315 320 325 328 334 328 317 314 307 300 304 283 293 278 281 282 282 278 267 258 251 249
nan nan nan nan nan nan nan nan nan nan nan nan nan nan nan nan nan nan 288 295 303 306 311 313 316 319 314 314 318 320 325 325 321 316 315 316 314 299 308 311 314 291 280 274 268 263 253 247 241
nan nan nan nan nan nan nan nan nan nan nan nan nan nan nan nan nan 271 290 293 299 303 302 314 313 319 315 315 320 320 328 321 320 324 327 321 313 310 309 302 309 278 255 224 230 256 253 250 245
nan nan nan nan nan nan nan nan nan nan nan nan nan nan nan nan nan 271 290 295 292 298 301 305 310 317 315 316 321 325 333 326 313 318 322 312 305 301 297 294 280 282 284 283 272 232 235 245 243
nan nan nan nan nan nan nan nan nan nan nan nan nan nan nan nan 268 275 285 289 288 291 298 305 313 320 311 311 320 325 335 331 313 312 314 304 305 292 287 285 285 280 286 291 291 281 233 242 238
nan nan nan nan nan nan nan nan nan nan nan nan nan nan nan nan 271 276 281 286 284 287 294 304 308 317 321 316 314 320 328 333 310 308 313 310 299 295 286 281 286 284 288 298 288 296 283 272 226
nan nan nan nan nan nan nan nan nan nan nan nan nan nan nan nan 264 278 280 281 279 283 294 298 304 315 320 308 314 317 320 324 310 301 304 310 316 315 300 289 288 297 296 302 293 301 283 277 218
nan nan nan nan nan nan nan nan nan nan nan nan nan nan nan nan 264 280 283 280 282 287 294 296 304 315 316 307 312 323 324 329 325 314 311 308 316 320 317 290 291 305 303 289 291 300 274 272 213
nan nan nan nan nan nan nan nan nan nan nan nan nan nan nan nan nan 282 292 283 285 287 291 295 301 311 317 308 313 313 309 313 318 315 304 305 307 310 302 296 299 292 291 283 272 264 266 283 210
nan nan nan nan nan nan nan nan nan nan nan nan nan nan nan nan nan nan nan 292 290 292 292 291 300 304 315 302 310 314 308 308 306 305 303 295 295 305 304 307 292 304 293 283 266 257 265 nan 208
nan nan nan nan nan nan nan nan nan nan nan nan nan nan nan nan nan nan nan nan nan 287 286 290 296 300 306 307 303 306 308 307 307 300 292 290 298 298 303 304 290 302 294 276 264 257 245 nan 203
nan nan nan nan nan nan nan nan nan nan nan nan nan nan nan nan nan nan nan nan nan 279 287 284 291 298 308 306 306 301 308 311 310 305 293 284 286 291 304 305 296 296 290 271 255 250 nan nan 220
nan nan nan nan nan nan nan nan nan nan nan nan nan nan nan nan nan nan nan nan nan nan 279 284 288 293 304 305 301 302 304 310 315 310 311 298 291 292 307 301 293 287 289 271 252 246 239 nan 214
nan nan nan nan nan nan nan nan nan nan nan nan nan nan nan nan nan nan nan nan nan nan 279 282 284 293 300 304 299 300 303 316 314 311 304 306 307 297 295 295 297 285 283 259 246 238 nan nan 213
nan nan nan nan nan nan nan nan nan nan nan nan nan nan nan nan nan nan nan nan nan nan nan 282 288 294 297 301 293 297 298 311 311 315 305 313 311 304 305 301 291 288 280 256 240 238 239 nan 222
nan nan nan nan nan nan nan nan nan nan nan nan nan nan nan nan nan nan nan nan nan nan nan 283 285 292 294 287 291 288 293 298 315 315 297 306 303 306 298 297 282 289 263 246 nan 251 nan 230 224
nan nan nan nan nan nan nan nan nan nan nan nan nan nan nan nan nan nan nan nan nan nan nan 276 285 288 280 284 291 286 297 295 313 310 318 310 304 306 303 nan nan nan nan nan nan 246 nan nan 228
nan nan nan nan nan nan nan nan nan nan nan nan nan nan nan nan nan nan nan nan nan nan nan nan 285 290 285 279 285 283 292 297 313 316 316 308 306 308 299 nan nan nan nan nan nan nan nan 221 231
nan nan nan nan nan nan nan nan nan nan nan nan nan nan nan nan nan nan nan nan nan nan nan nan 277 285 284 286 283 285 290 292 310 313 316 298 306 308 nan nan nan nan nan nan nan nan nan 230 231
nan nan nan nan nan nan nan nan nan nan nan nan nan nan nan nan nan nan nan nan nan nan nan nan 275 280 282 289 286 294 288 299 308 318 nan nan nan nan nan nan nan nan nan nan nan nan nan 238 231
nan nan nan nan nan nan nan nan nan nan nan nan nan nan nan nan nan nan nan nan nan nan nan nan 265 275 281 285 285 282 289 294 304 nan nan nan nan nan nan nan nan nan nan nan nan nan 226 221 237
nan nan nan nan nan nan nan nan nan nan nan nan nan nan nan nan nan nan nan nan nan nan nan 271 265 269 274 276 286 290 288 296 298 nan nan nan nan nan nan nan nan nan nan nan nan 225 220 230 244
nan nan nan nan nan nan nan nan nan nan nan nan nan nan nan nan nan nan nan nan nan nan nan 264 261 266 266 268 281 286 284 290 297 nan nan nan nan nan nan nan nan nan nan nan nan nan nan 240 248
nan nan nan nan nan nan nan nan nan nan nan nan nan nan nan nan nan nan nan nan nan nan nan 258 263 261 263 263 278 277 279 276 nan nan nan nan nan nan nan nan nan nan nan nan nan nan nan nan nan
nan nan nan nan nan nan nan nan nan nan nan nan nan nan nan nan nan nan nan nan nan nan 235 256 263 261 nan 259 262 272 274 279 nan nan nan nan nan nan nan nan nan nan nan nan nan nan nan nan nan
nan nan nan nan nan nan nan nan nan nan nan nan nan nan nan nan nan nan nan nan nan nan nan 255 262 260 257 254 255 264 269 nan nan 289 nan nan nan nan nan nan nan nan nan nan nan nan nan nan nan
nan nan nan nan nan nan nan 223 232 nan nan nan nan nan nan nan nan nan nan nan nan nan 240 252 258 250 255 250 253 256 264 270 nan 279 nan nan nan nan nan nan nan nan nan nan nan nan nan nan nan
nan nan nan nan nan nan nan nan nan nan nan nan nan nan nan nan nan nan nan nan nan 221 220 251 251 249 244 245 249 255 257 nan nan nan nan nan nan nan nan nan nan nan nan nan nan nan nan nan nan